Wind_Gust
18 18 19 19 18 17 17 16 17 17 17 16 18 18 17 16 15 16 16 15 15 15 16 16 17 17 18 18 19 18 17 16 15 16 16 17 17 16 16 17 18 18 18 16 15 17 18 19 18 15 13 14 15 15 16 15 15 14 13 13 15 13 12 15 20 24 22 19 24 27 25 23 26 23 27 26 26 27 22 26 28 27 28 29 30
19 19 16 18 17 18 18 16 17 18 18 17 18 19 18 16 16 17 16 15 15 16 17 15 15 17 17 18 18 19 18 18 16 16 18 18 16 14 15 16 17 17 16 17 17 16 16 18 17 15 13 15 14 17 16 16 15 16 17 16 16 16 14 17 20 23 28 26 25 24 24 22 28 23 25 28 29 27 29 29 28 27 30 30 31
18 18 19 19 18 18 19 19 20 20 20 19 19 19 17 16 16 18 17 15 13 14 16 16 16 17 17 17 18 18 18 17 15 17 17 18 18 15 15 16 16 16 16 17 17 17 17 17 16 14 12 14 14 14 14 15 15 16 16 15 16 16 17 16 21 25 27 29 25 27 26 25 24 29 27 26 28 29 30 29 29 29 28 29 33
20 19 19 18 19 20 20 21 22 21 20 19 20 18 18 16 16 17 16 15 15 13 14 16 16 16 17 17 17 17 18 17 16 17 18 18 18 17 16 15 15 15 16 16 16 17 16 16 15 13 12 14 14 14 15 15 16 15 15 16 16 17 17 17 18 22 26 29 26 28 28 26 29 26 27 27 28 29 29 31 29 29 29 31 32
20 19 19 20 19 20 20 21 21 20 19 19 19 18 17 17 16 17 16 15 15 15 14 14 16 17 17 18 18 18 18 18 17 16 15 15 16 16 15 15 14 14 14 14 12 15 16 15 14 13 13 14 14 15 15 15 15 15 16 18 19 19 19 20 20 20 23 27 30 25 24 26 25 26 28 32 32 31 26 29 29 31 30 30 34
20 19 19 21 20 20 20 20 20 19 19 19 19 18 17 17 17 15 16 17 15 14 15 14 15 16 17 17 17 18 17 17 18 17 16 14 14 14 13 13 13 13 12 12 13 13 14 15 14 13 13 14 14 14 14 14 14 15 16 18 19 19 20 20 20 21 22 23 25 33 23 27 29 25 26 30 34 37 33 28 28 29 33 38 36
18 19 19 19 21 21 21 20 20 20 19 19 17 18 17 16 17 16 14 16 16 15 15 15 13 15 15 15 16 16 16 16 16 16 16 15 15 14 13 12 12 11 11 12 11 12 12 13 13 12 13 14 14 15 15 15 14 15 16 16 18 19 22 22 22 22 22 24 24 22 27 24 24 30 31 29 28 30 37 40 36 32 36 38 42
21 20 20 19 20 21 19 19 19 19 18 19 18 17 17 16 15 15 15 15 16 16 16 16 14 13 14 14 14 14 15 15 15 15 15 15 14 14 13 13 12 11 10 11 10 10 11 11 12 12 13 14 14 14 15 16 15 16 17 17 19 21 22 22 22 23 23 23 23 26 25 28 27 26 29 29 32 31 30 34 44 48 42 37 34
22 20 18 19 19 19 19 19 18 19 20 19 17 16 16 15 15 15 14 14 13 14 14 16 16 15 14 14 14 13 14 14 14 14 15 15 14 14 13 13 12 12 11 11 10 9 9 9 10 12 13 12 10 10 11 10 14 17 17 17 19 21 22 23 23 23 23 23 25 24 26 27 29 31 34 33 34 37 39 35 42 42 43 43 38
23 20 19 18 18 19 20 19 20 20 20 19 17 16 16 15 15 15 15 14 14 14 14 14 16 16 16 15 13 12 12 11 8 8 7 15 14 13 12 12 12 11 10 10 10 9 8 8 8 9 10 9 9 11 13 15 15 15 16 15 17 19 21 22 23 23 23 25 25 27 28 30 32 31 32 30 32 33 35 35 43 45 43 42 36
21 21 20 18 20 21 21 20 21 22 21 20 18 18 16 15 15 14 14 14 14 14 14 15 15 15 16 16 15 13 12 10 9 8 9 9 12 13 13 13 11 11 10 9 9 9 9 8 7 8 9 8 11 11 14 15 16 17 18 17 15 16 18 20 20 21 23 24 26 26 27 30 31 31 29 33 32 34 35 36 42 45 45 45 53
24 22 20 20 21 23 23 23 22 21 21 21 20 18 16 16 15 14 14 14 13 13 14 14 14 14 14 15 14 13 12 6 8 9 9 9 7 12 12 12 11 11 10 9 9 8 8 7 7 8 9 12 12 13 13 14 16 17 17 17 16 16 11 14 19 21 21 23 25 25 27 29 31 30 33 34 36 35 33 34 39 42 45 45 46
22 23 21 21 21 21 23 24 24 23 21 20 19 20 17 15 14 15 14 13 13 13 13 13 13 13 14 16 15 13 12 7 8 10 10 10 9 9 12 10 11 10 9 9 8 8 7 6 8 10 9 11 12 13 13 15 14 16 16 14 15 16 15 15 12 15 19 21 23 25 26 30 30 30 31 35 34 34 35 36 36 40 41 44 46
20 23 24 23 21 21 22 23 24 23 20 19 19 18 17 16 17 15 14 13 13 13 12 12 12 12 13 14 14 13 12 8 8 10 10 10 9 8 11 10 9 8 8 8 8 9 8 6 7 10 11 11 11 13 13 13 14 15 17 18 20 18 14 14 14 14 14 19 21 24 26 25 30 29 31 30 33 36 39 40 38 42 42 44 43
19 20 20 20 21 21 22 23 22 22 23 22 20 20 18 18 18 16 15 16 16 16 16 14 11 11 11 12 14 13 12 7 8 9 9 10 9 7 9 9 9 9 8 9 9 9 8 6 7 9 9 10 11 13 14 14 14 14 17 18 19 19 18 17 19 19 20 19 20 22 25 25 25 28 30 30 29 31 31 36 38 39 43 40 40
21 19 21 22 22 22 23 23 23 22 22 22 21 19 18 19 19 16 14 12 12 13 12 12 12 12 11 12 15 15 13 5 7 9 9 9 9 9 10 10 10 10 10 10 10 9 8 6 6 7 9 10 8 9 10 14 13 16 18 19 19 19 17 11 14 14 19 21 21 22 24 26 25 29 30 32 31 29 31 32 30 37 42 38 39
22 22 21 22 23 24 23 22 22 22 22 21 20 20 19 17 15 16 15 14 14 14 14 12 12 12 12 13 15 15 14 8 6 8 8 9 8 10 10 11 11 11 11 11 10 8 7 6 6 8 9 9 9 10 11 10 12 16 19 19 19 19 20 19 14 16 17 19 19 20 22 24 25 27 28 30 29 29 31 32 34 39 42 41 42
24 22 21 21 21 21 22 23 22 21 21 20 19 17 17 15 17 17 18 18 16 15 15 13 11 12 12 13 14 15 15 12 10 9 9 8 8 11 12 12 12 11 12 10 9 8 7 6 6 8 9 10 10 12 10 10 12 16 18 20 20 21 20 21 22 20 14 17 19 19 20 23 25 26 26 26 28 25 30 34 36 38 38 35 42
24 25 22 22 21 21 21 22 22 23 23 20 21 19 19 19 17 18 15 15 16 16 15 15 12 10 10 12 12 16 15 11 9 10 8 8 9 11 12 13 13 12 11 11 9 8 9 7 6 7 8 10 11 11 10 9 12 13 16 18 20 21 22 22 22 23 23 22 21 21 21 20 22 23 25 26 26 24 26 30 31 35 36 36 36
24 22 20 20 21 21 21 22 22 23 22 20 19 20 18 18 17 17 15 15 17 16 15 14 14 12 11 12 13 13 15 15 13 9 8 7 6 11 12 13 13 13 11 11 10 9 8 9 11 8 9 11 12 12 12 8 11 14 15 17 19 21 23 23 21 22 22 21 22 21 22 22 23 23 24 27 28 25 28 28 30 30 32 31 31
23 22 22 21 21 21 21 21 23 21 22 21 19 18 18 19 17 16 16 14 15 15 15 14 13 12 12 12 14 14 14 15 13 9 8 7 6 7 13 12 12 12 11 10 8 8 9 10 9 8 11 13 13 13 13 12 9 14 14 16 17 19 18 21 22 15 20 20 20 21 22 22 22 24 26 27 28 29 28 27 28 29 28 30 31
23 23 23 22 21 20 20 20 23 21 19 20 20 18 16 18 18 16 15 15 15 16 15 14 14 13 12 11 12 14 12 8 15 9 9 8 8 5 9 11 7 9 10 9 8 7 7 8 10 11 13 13 14 13 14 12 12 15 14 10 15 16 19 19 20 21 21 21 22 22 23 25 26 26 26 27 28 30 29 30 29 29 26 24 25
23 21 21 21 22 22 20 22 22 20 21 20 21 20 19 18 17 17 17 16 18 17 16 14 14 14 12 12 12 13 13 13 7 12 10 9 8 7 4 5 4 9 6 8 7 8 7 8 9 10 12 14 13 13 13 13 11 12 11 14 15 16 15 18 19 20 21 22 22 24 25 26 27 28 28 28 29 29 31 29 30 31 27 24 23
22 22 22 22 21 21 19 20 19 20 22 23 22 22 20 18 17 17 18 19 20 19 16 15 15 16 17 16 14 14 13 12 7 6 11 10 9 8 7 5 6 8 7 6 7 7 9 9 10 12 14 14 13 13 13 11 13 11 12 13 14 12 16 19 19 21 20 23 24 25 25 25 26 26 27 27 29 30 30 29 31 31 31 27 24
24 22 21 21 21 21 21 21 21 22 22 23 23 22 21 20 19 17 18 18 19 19 17 16 16 16 17 18 16 14 14 14 13 10 7 8 9 9 8 7 6 5 9 8 7 7 6 9 12 13 13 13 13 13 11 11 11 11 12 12 12 16 17 18 20 20 22 24 25 24 24 24 24 25 26 25 26 25 26 27 27 27 28 26 20
22 23 21 19 22 23 22 21 20 21 23 23 22 22 22 22 20 21 20 20 20 20 18 19 19 19 18 17 16 16 15 14 14 13 10 8 7 8 8 8 7 8 8 10 8 8 9 10 12 12 10 10 12 11 12 13 11 12 12 11 13 16 16 18 18 20 22 23 24 24 24 24 24 25 24 25 25 27 28 31 32 32 33 32 32
23 22 22 21 19 22 23 20 19 19 19 20 20 21 22 22 21 22 22 21 19 18 18 18 19 19 18 16 15 14 14 15 15 14 15 15 14 12 12 12 7 6 11 12 8 10 10 10 9 7 8 10 11 10 11 11 14 12 13 13 14 14 15 14 17 18 18 20 22 23 23 22 22 23 26 26 27 27 26 28 30 32 33 32 29
25 21 22 20 20 21 21 18 21 20 21 22 22 22 22 21 22 22 23 21 20 20 21 20 19 18 18 17 15 12 13 16 17 17 16 16 15 14 13 12 13 12 12 10 9 9 11 6 10 11 10 11 11 12 12 12 13 12 13 14 14 14 12 10 11 14 16 19 20 22 23 24 24 25 25 26 28 28 26 28 29 32 32 32 34
20 19 21 21 21 20 20 22 21 22 22 22 22 23 23 22 23 21 18 19 21 21 19 17 16 18 20 18 16 16 16 17 18 12 17 10 16 15 14 15 13 12 8 4 8 10 11 13 11 11 10 9 13 15 16 16 16 15 12 12 16 16 16 18 19 18 18 19 21 22 23 24 23 23 24 26 27 29 28 27 26 29 30 31 30
19 20 20 19 20 21 19 21 20 21 24 24 22 18 9 13 19 22 19 11 12 12 11 20 20 19 17 14 16 18 18 18 11 11 13 12 13 12 9 7 7 8 7 7 4 9 12 10 11 10 12 12 12 13 14 16 16 17 18 8 14 15 16 16 17 18 17 17 18 19 21 20 23 24 24 24 26 27 28 22 27 27 30 33 33
20 19 21 21 22 21 21 21 22 22 22 22 21 20 18 11 3 8 12 16 15 14 14 15 13 13 17 18 14 14 11 8 9 10 12 13 13 12 10 10 10 9 10 7 7 9 10 10 10 9 8 11 10 11 11 11 11 11 15 14 16 12 11 16 16 14 14 15 15 17 17 20 21 22 22 23 24 26 28 27 26 26 28 31 33
23 22 22 20 22 21 22 22 22 23 21 20 21 21 20 19 14 6 5 13 15 16 18 17 14 15 16 14 10 13 12 11 8 9 12 13 13 13 12 11 11 11 8 5 8 10 10 10 10 10 11 11 10 12 11 13 12 13 11 13 14 12 12 14 13 15 14 16 15 15 17 19 21 19 20 21 19 24 27 26 28 27 26 27 29
21 19 19 19 20 20 21 23 21 21 20 20 20 21 22 21 21 17 8 4 8 13 14 13 14 15 15 14 13 10 10 12 13 10 10 12 13 14 13 11 10 10 11 7 10 11 10 12 13 13 11 11 14 14 14 14 13 13 14 13 14 14 16 14 9 14 12 14 14 14 15 16 17 19 16 17 19 21 22 24 27 26 26 24 26
22 23 22 22 23 22 23 23 23 21 22 23 23 22 21 20 20 19 18 14 10 5 4 8 12 13 12 13 14 14 12 9 10 12 11 12 13 12 11 12 8 10 9 12 10 11 14 13 13 14 14 13 13 13 13 14 13 13 14 14 15 16 15 12 13 13 11 13 14 14 14 16 14 17 20 20 19 19 21 21 24 24 24 24 25
20 17 18 18 22 22 22 22 22 21 20 21 21 21 20 19 18 20 21 20 19 19 17 15 11 13 17 13 14 15 13 10 10 12 12 12 12 13 11 15 11 11 12 14 15 15 15 14 14 14 13 14 14 12 13 14 14 13 14 15 16 16 16 15 14 14 12 14 14 14 13 15 18 15 16 18 19 21 21 21 23 24 25 23 24
21 19 18 20 19 18 19 21 22 23 23 21 21 21 19 19 18 19 18 17 17 18 16 18 17 8 10 7 7 10 10 10 11 12 13 14 15 17 15 12 12 14 14 15 16 16 15 16 15 15 14 14 13 13 13 13 13 14 14 14 12 16 16 16 14 13 10 12 12 12 12 14 14 14 16 18 20 18 20 20 20 20 21 22 22
21 20 20 20 20 18 17 17 17 18 14 18 19 21 19 19 18 19 18 17 16 16 16 13 12 11 6 9 8 8 9 9 9 11 13 15 19 17 15 14 15 14 14 16 15 15 16 16 15 15 14 14 15 14 13 13 14 14 11 15 15 15 14 13 13 9 11 13 13 11 10 12 12 12 13 16 18 18 19 19 18 18 18 20 17
21 22 23 24 19 17 16 19 17 14 17 16 19 19 18 19 19 18 17 16 18 16 14 13 10 13 15 13 12 10 13 9 11 10 8 8 11 13 15 14 14 14 16 16 15 15 16 16 15 15 15 14 15 14 14 14 13 13 13 13 12 12 8 13 9 13 9 11 12 11 11 11 11 11 11 14 15 17 18 17 18 21 20 19 20
17 15 18 19 15 19 17 16 16 18 17 18 18 18 17 19 19 18 18 15 13 13 13 12 12 11 12 13 15 13 15 15 14 14 13 13 14 14 14 13 14 15 16 17 15 15 16 17 16 14 14 14 14 14 14 14 13 13 13 10 11 12 11 12 12 10 11 12 12 12 11 12 12 11 11 13 13 14 16 16 16 17 19 20 21
20 20 17 18 16 18 17 17 19 19 18 19 18 18 18 18 19 18 17 15 15 15 16 15 14 13 11 12 15 17 18 16 14 13 12 12 13 15 14 15 16 16 17 17 17 17 16 17 15 14 14 14 14 15 14 14 13 11 11 10 11 12 12 12 13 12 12 12 13 13 12 11 11 10 11 11 12 13 14 16 16 15 15 15 17
18 19 14 15 15 17 14 16 17 18 17 19 19 19 20 19 18 17 16 15 15 15 15 14 14 12 12 14 12 15 17 16 15 15 15 16 15 15 16 16 16 17 17 17 18 18 17 15 14 14 14 14 14 14 14 13 12 10 10 10 11 12 13 11 11 12 11 11 12 12 12 12 10 11 12 12 8 11 12 14 15 17 16 15 15
17 17 18 15 16 17 16 17 16 17 15 16 16 16 15 15 15 15 16 16 17 15 12 12 12 11 10 13 13 14 14 13 12 13 13 13 14 15 15 16 16 17 18 18 18 17 15 15 15 14 12 11 12 13 13 13 12 11 10 11 11 12 12 14 12 9 9 11 11 11 11 11 11 11 11 7 12 11 12 13 14 15 16 16 15
17 18 18 17 18 17 18 17 16 16 16 16 16 12 16 20 19 18 17 15 14 15 15 13 11 11 12 11 14 13 14 13 8 13 14 14 15 14 14 16 17 17 17 17 16 15 14 11 11 12 12 15 15 11 12 12 11 11 11 10 12 12 12 13 13 11 9 10 11 10 9 11 11 12 11 10 10 11 12 11 11 14 14 15 14
18 17 16 17 16 15 15 18 20 19 19 18 17 18 18 17 15 14 15 14 14 13 12 12 12 13 13 15 14 15 15 14 15 16 16 15 14 13 16 16 16 15 15 16 16 14 13 11 12 12 14 15 15 14 15 13 11 11 11 12 12 12 13 13 13 11 10 11 12 11 10 10 11 12 11 10 10 10 11 10 11 12 14 14 15
18 18 18 17 15 16 18 17 17 17 17 15 16 17 15 15 14 13 13 13 14 13 12 12 12 13 13 15 16 16 15 15 14 14 14 15 16 16 16 15 15 15 15 12 14 13 13 12 11 11 13 14 15 15 15 15 14 12 12 12 13 15 15 15 13 10 9 8 12 12 12 11 10 11 12 11 9 9 12 10 11 9 12 12 13
20 18 18 19 18 16 16 17 15 17 18 18 18 18 19 17 13 13 14 16 15 15 14 14 14 13 13 14 15 14 15 14 14 15 15 15 15 16 14 14 13 14 12 11 10 12 11 11 11 12 14 15 15 15 15 15 15 16 15 15 16 16 18 15 11 9 10 9 12 12 12 11 12 12 9 11 12 11 10 9 8 10 11 11 11
21 19 18 17 18 17 16 16 15 16 17 16 16 17 17 15 14 12 12 16 15 14 14 14 14 14 14 14 14 14 15 14 15 15 16 16 14 14 14 13 11 12 11 13 9 10 10 12 12 13 14 14 12 16 17 16 16 16 15 16 17 17 17 12 10 10 11 11 10 12 12 12 12 12 10 10 10 11 11 12 12 9 11 11 12
18 17 18 17 16 17 16 16 16 13 14 13 14 14 14 14 13 13 13 14 15 14 15 13 13 13 12 13 13 13 13 14 13 13 14 14 15 15 14 13 12 12 10 10 10 11 11 12 12 12 13 14 13 14 17 17 16 16 16 16 16 17 16 10 12 14 11 10 9 10 10 13 13 12 11 9 9 12 13 14 11 12 10 10 10
20 20 19 18 18 18 18 18 18 18 17 14 13 13 11 11 12 11 12 14 15 15 16 14 14 13 13 14 13 12 12 11 13 14 15 15 14 14 14 14 12 11 10 11 12 11 11 12 11 12 13 13 13 14 17 17 17 17 16 16 16 17 15 13 12 17 12 10 10 10 10 11 11 11 11 11 12 13 14 12 12 13 14 12 12
20 19 20 21 20 20 18 18 17 16 14 15 15 13 11 11 11 12 13 14 15 15 15 14 13 14 14 14 13 14 13 13 15 15 15 14 14 13 13 13 12 10 11 12 13 11 11 11 11 12 12 13 13 14 14 14 17 16 16 17 14 14 12 13 15 15 13 12 11 11 12 11 10 11 12 12 11 12 13 14 12 12 13 14 13
18 19 18 16 18 18 17 15 15 15 16 16 16 16 16 15 14 14 15 15 15 15 15 14 15 14 14 14 13 13 14 15 14 14 14 13 13 13 13 13 11 13 14 14 12 12 12 11 12 11 11 12 13 13 13 16 13 15 15 17 16 15 14 12 14 12 14 10 11 12 13 13 11 12 13 13 12 13 13 12 12 12 13 14 14
Wind_Speed
11 9 9 9 11 11 10 9 10 9 10 9 9 9 9 8 7 8 8 7 7 7 8 8 8 8 9 9 10 9 9 8 7 7 8 8 7 8 7 8 9 8 8 8 7 8 9 9 9 7 6 6 6 6 7 7 6 5 5 5 6 5 4 6 8 11 9 8 10 11 12 12 12 12 14 12 13 13 13 14 15 14 14 13 14
8 10 9 9 10 10 11 9 10 10 10 9 10 10 9 8 8 8 8 7 7 8 8 7 7 8 8 9 9 10 9 9 8 7 8 9 8 5 7 8 8 8 8 9 8 7 8 9 8 7 6 7 6 7 7 7 6 6 7 6 6 7 6 6 9 10 13 12 11 11 10 11 12 11 12 15 15 14 15 14 13 14 14 14 14
9 9 10 10 11 11 11 11 11 12 11 10 10 10 9 8 8 9 8 7 5 6 7 8 8 8 8 9 9 9 9 9 7 8 8 9 9 7 7 8 8 8 8 8 8 8 9 8 8 6 4 6 6 6 6 7 6 7 7 6 7 7 7 7 9 11 13 13 12 12 11 11 11 14 14 12 14 14 16 15 14 13 12 15 15
11 10 10 11 11 12 11 11 13 12 11 9 11 10 9 8 8 8 8 7 7 6 7 8 8 8 8 9 9 9 9 8 8 8 9 9 9 9 8 7 7 7 7 7 8 8 8 8 7 6 5 6 6 6 6 6 7 6 7 7 7 8 8 8 9 9 11 13 12 12 11 11 11 12 12 13 13 14 14 14 15 14 15 15 16
11 11 11 12 11 11 12 12 12 11 10 9 11 10 9 8 7 8 8 7 7 7 6 6 8 8 8 9 9 9 9 9 9 8 7 7 8 8 7 7 6 6 6 6 6 7 8 7 6 6 6 6 6 7 6 7 6 6 7 8 8 8 8 9 9 9 11 13 13 10 11 10 10 12 13 15 16 15 13 14 14 15 15 16 16
11 11 10 11 11 12 12 11 11 11 11 11 11 10 9 9 8 7 8 8 7 6 7 6 6 8 8 8 9 9 9 9 9 9 8 7 7 6 6 6 6 5 5 5 6 6 6 7 6 5 6 6 6 6 6 7 6 7 8 8 9 9 9 10 9 10 10 11 12 13 10 11 12 11 12 15 16 17 16 14 15 15 17 19 17
10 11 10 11 12 12 12 11 10 11 10 10 9 9 9 8 9 8 7 8 8 7 7 7 5 7 7 7 7 8 8 8 8 8 8 7 7 7 6 6 5 4 4 4 4 5 5 6 5 5 5 6 7 7 7 7 6 8 8 8 8 10 10 10 10 11 10 11 11 10 12 11 11 13 15 15 14 14 17 19 16 16 17 19 20
11 11 11 10 11 12 10 10 10 10 9 9 9 9 8 8 8 7 7 8 7 8 8 8 6 6 6 6 6 6 7 7 7 7 7 7 6 6 6 5 5 4 4 4 3 3 4 4 5 5 5 6 6 6 7 6 6 8 8 8 9 10 11 10 10 10 10 10 10 12 11 12 12 12 13 14 15 15 13 15 19 22 20 17 16
12 11 10 10 10 10 10 10 9 10 10 10 9 8 8 7 7 7 6 6 5 6 7 7 8 7 6 6 7 5 6 6 6 6 7 7 6 6 6 5 5 5 4 4 3 3 2 3 3 5 5 5 4 4 4 4 5 7 8 8 9 10 10 10 10 10 10 10 11 10 11 12 13 14 16 15 16 17 17 17 18 19 20 19 18
13 11 10 9 9 10 11 10 10 11 11 10 9 8 6 5 6 6 6 6 6 6 6 7 7 8 8 7 6 5 5 4 5 7 6 6 6 5 5 5 5 4 4 3 3 3 2 1 2 3 1 3 2 4 5 6 5 5 5 6 8 9 10 10 10 10 10 11 11 12 13 14 14 15 15 15 16 17 18 17 20 22 20 19 15
12 12 11 10 11 12 11 10 11 12 11 10 10 9 8 6 5 6 6 6 7 7 6 7 7 7 8 7 7 5 4 4 7 7 6 4 6 6 6 5 5 4 3 3 2 2 2 1 1 2 2 2 2 2 4 6 7 8 8 8 7 6 8 9 9 10 10 11 11 12 12 15 16 15 15 16 15 17 17 17 18 18 19 22 23
13 12 11 11 12 13 12 13 12 12 12 12 11 9 7 7 6 5 5 7 6 6 7 7 6 6 6 7 7 6 5 5 7 7 6 7 5 5 5 5 4 4 3 2 2 2 1 1 1 2 3 4 4 4 4 4 6 8 9 10 11 10 4 5 8 9 10 10 11 12 13 14 15 15 16 17 17 17 17 17 17 20 22 22 21
11 13 12 12 12 12 13 13 13 12 11 11 9 9 9 8 7 5 6 5 6 6 6 6 6 6 7 8 7 6 5 5 6 7 7 7 5 4 4 4 4 4 3 2 1 2 1 0 1 2 2 1 3 4 5 5 4 5 6 9 9 9 10 8 6 7 9 10 11 12 12 14 15 15 16 17 17 17 18 17 18 19 19 21 21
9 12 14 13 12 12 13 13 13 13 11 10 10 10 9 7 8 8 6 6 6 6 6 6 6 6 6 7 6 5 5 6 6 7 8 7 6 3 4 3 3 2 2 1 2 3 2 0 1 3 4 3 3 5 5 6 6 7 8 9 10 11 10 9 9 8 8 8 10 12 13 13 13 15 17 17 17 18 18 19 20 21 22 21 23
7 9 11 11 11 11 12 12 12 11 12 12 10 9 9 9 10 8 7 7 8 8 8 7 5 5 5 6 6 5 4 6 5 6 7 6 4 2 3 2 2 2 2 3 3 3 2 1 1 3 3 3 3 6 6 6 6 6 8 9 10 9 8 8 9 9 9 8 9 11 12 13 13 15 16 15 16 15 15 19 21 20 19 21 19
12 10 10 11 12 12 13 12 11 11 12 12 11 11 10 10 10 8 7 5 5 5 5 5 6 5 5 6 7 7 5 4 4 5 6 6 5 2 3 3 3 3 3 4 4 3 2 1 1 2 2 2 5 4 5 5 5 8 9 10 10 9 7 6 6 8 9 9 10 10 11 13 16 15 16 16 16 15 16 16 15 17 20 19 19
12 13 12 13 13 13 13 12 11 12 12 11 10 11 11 9 8 7 7 6 6 7 7 5 5 5 6 6 8 7 7 6 5 6 6 6 5 4 4 4 4 4 4 4 3 2 1 1 1 2 2 2 4 5 5 5 5 8 9 10 9 9 9 9 8 9 10 13 14 15 16 17 18 19 20 22 16 16 15 15 16 18 21 20 21
11 12 11 11 12 12 12 12 11 11 11 11 10 8 8 7 8 8 9 9 8 7 7 5 4 5 6 7 7 8 7 8 9 8 8 6 4 4 4 4 5 4 5 4 3 2 1 1 2 1 2 3 5 5 5 4 5 7 9 11 10 10 10 10 10 9 11 12 14 14 15 16 17 18 18 18 20 17 14 16 18 18 18 18 18
12 14 13 12 12 12 10 10 11 11 10 11 11 11 9 9 8 8 7 7 7 7 6 6 5 4 4 6 8 8 7 6 6 8 7 7 5 4 4 5 5 5 4 4 3 2 3 3 3 1 3 4 6 4 4 3 5 6 8 9 10 11 10 11 11 11 11 11 10 11 10 11 11 12 13 17 18 17 14 15 15 16 18 18 18
13 13 11 12 12 12 12 13 13 12 12 11 10 9 8 7 8 8 7 7 7 7 7 6 7 5 5 5 5 6 8 7 6 7 7 6 3 4 5 5 5 5 4 4 4 3 2 2 6 7 3 4 5 5 4 2 4 6 7 7 9 11 11 11 10 10 11 10 11 11 11 11 11 12 12 14 15 15 15 14 15 14 15 16 15
13 12 12 11 11 12 12 12 13 12 12 11 9 8 8 9 8 8 8 6 7 7 7 6 6 5 5 6 7 7 6 7 6 8 7 6 4 4 5 5 5 5 4 4 2 2 1 1 1 4 4 6 6 7 6 6 4 5 6 7 8 9 10 10 11 12 10 10 10 10 10 10 10 11 12 13 13 14 14 14 14 14 14 12 13
13 13 13 12 12 11 11 11 12 10 10 9 9 8 8 9 8 7 6 7 8 8 8 7 6 6 5 5 5 6 6 6 7 7 8 7 6 5 3 4 2 3 4 3 2 2 1 2 2 4 5 6 7 7 7 7 7 5 6 6 10 10 8 9 9 9 9 9 10 10 10 11 11 12 12 13 13 15 15 14 15 15 13 9 10
13 12 11 11 12 11 11 14 12 9 10 11 11 11 9 9 9 9 8 8 9 9 8 7 7 6 6 5 5 5 6 5 6 7 8 8 7 6 3 2 1 2 1 2 1 1 1 2 2 1 6 7 7 7 7 8 7 5 6 9 10 11 11 7 9 9 10 10 10 11 11 12 12 13 13 13 13 15 14 14 15 16 14 10 8
13 12 11 12 12 12 11 11 10 10 12 12 12 12 10 9 8 8 9 9 9 9 7 7 7 8 8 7 6 6 5 5 5 6 7 9 8 7 6 3 3 3 2 1 0 1 2 2 4 7 8 8 8 7 8 7 6 9 10 9 11 10 7 8 8 10 9 10 11 12 11 11 11 12 12 12 13 14 14 15 16 17 16 14 11
13 12 12 12 11 11 12 11 11 12 12 12 12 11 12 11 9 8 9 9 9 9 8 8 7 7 8 8 7 6 6 6 5 6 7 7 8 8 7 6 5 4 3 2 2 1 3 6 9 9 8 8 9 9 8 9 9 8 8 9 9 6 8 8 9 9 10 11 11 11 11 11 11 11 13 13 13 12 12 13 14 14 15 14 11
13 13 12 11 12 13 12 12 12 12 13 12 11 11 12 11 10 10 9 9 10 9 8 9 9 9 8 8 7 7 7 6 6 5 6 6 6 8 7 7 6 7 6 4 4 5 7 8 10 10 8 5 4 4 5 5 6 9 10 9 5 7 6 8 8 9 9 10 11 11 11 10 11 11 12 12 12 12 13 14 15 15 16 15 15
13 12 13 12 11 12 13 10 9 10 11 10 10 10 10 11 10 10 11 10 9 8 8 9 9 8 8 7 7 6 6 6 6 6 6 6 6 6 5 5 6 5 5 5 5 4 4 5 4 4 6 7 8 8 8 8 7 5 4 5 6 5 6 6 7 8 7 9 10 10 10 10 10 11 12 12 13 13 12 13 14 15 16 15 13
13 12 13 11 10 11 11 14 13 10 10 10 10 10 10 10 10 11 11 10 9 10 10 10 9 8 8 7 6 5 6 6 7 7 7 7 6 5 5 5 5 5 5 4 3 2 4 5 6 4 3 4 3 4 4 5 5 5 5 6 6 6 6 8 8 5 7 8 9 10 10 11 11 11 11 12 13 13 13 13 13 15 15 15 13
11 12 12 11 11 10 10 11 11 11 11 11 10 11 11 10 11 10 10 9 10 10 9 8 8 8 9 8 7 7 7 7 8 9 8 9 8 6 6 6 5 5 3 1 2 3 4 5 4 4 3 3 5 6 6 6 7 7 5 5 7 7 7 8 8 8 8 8 9 10 10 11 10 10 11 12 13 13 13 13 12 13 14 14 14
10 9 10 10 10 10 9 10 10 10 11 11 10 8 9 12 12 11 9 9 11 10 8 9 9 8 8 6 7 8 8 7 5 9 9 10 10 10 7 5 5 3 6 5 2 3 5 3 4 3 4 5 4 5 5 6 7 7 8 6 6 6 7 7 7 8 7 7 8 8 10 9 10 11 11 11 12 12 13 14 12 13 14 15 15
9 9 11 9 12 10 10 10 10 10 10 10 10 9 8 4 2 3 9 13 12 11 11 8 6 7 8 8 7 9 4 7 8 8 9 11 11 11 9 7 8 7 9 3 2 3 3 3 3 3 3 4 3 4 4 4 4 4 6 5 6 5 4 7 7 7 6 6 6 7 7 9 9 10 10 10 11 11 13 13 12 12 13 14 16
11 10 11 10 12 11 11 11 11 11 10 10 10 10 9 9 6 3 2 10 11 13 13 13 12 13 13 10 6 6 8 7 5 7 8 10 11 11 10 9 9 9 7 3 2 3 3 3 3 3 4 4 3 5 4 5 4 5 4 5 5 5 4 5 5 6 5 6 6 6 7 8 9 8 9 9 8 11 12 12 12 12 12 12 13
12 10 10 9 10 11 10 11 10 10 10 10 10 10 10 10 10 7 3 3 7 10 11 11 11 11 12 12 10 8 5 6 9 8 9 10 10 11 11 9 9 9 9 3 3 4 3 5 5 5 4 4 6 5 5 6 5 5 5 5 5 5 7 6 4 5 5 6 5 5 6 6 7 9 7 8 9 9 10 10 12 12 12 11 13
12 11 10 11 12 11 11 11 11 10 10 11 11 10 10 10 9 9 8 6 4 2 4 8 10 10 10 11 11 12 10 7 8 10 9 10 11 10 10 6 7 8 4 5 3 4 5 5 5 5 5 5 5 5 5 5 5 5 6 6 6 7 6 5 5 5 4 5 5 6 6 7 6 7 8 8 8 8 9 9 11 11 11 10 11
10 12 15 13 11 11 11 10 10 10 10 10 10 10 10 10 9 10 10 10 9 9 8 6 8 11 10 9 12 13 11 9 8 9 10 10 10 11 10 6 4 4 4 6 6 6 6 6 6 6 5 5 5 5 5 6 5 5 6 6 7 7 7 6 6 6 4 5 5 6 5 6 8 6 7 8 8 9 9 10 10 11 11 10 11
10 9 9 10 8 7 9 10 10 11 11 10 10 10 9 9 9 9 9 9 8 8 7 8 7 8 9 7 6 8 8 9 9 10 11 11 12 14 6 5 4 5 6 6 7 7 6 6 6 6 5 6 5 5 5 5 5 5 5 5 4 7 6 7 6 5 4 4 5 5 6 5 6 6 7 8 10 8 8 9 9 9 10 10 10
10 9 9 10 10 9 8 8 8 9 8 9 9 10 9 9 9 9 8 8 8 7 7 6 5 4 3 4 5 6 7 8 8 8 10 12 15 10 6 6 6 6 6 7 6 6 6 7 6 6 6 6 6 6 5 5 5 6 6 6 6 6 7 5 5 4 4 5 5 4 4 4 4 4 5 7 8 8 8 9 8 8 8 10 11
11 11 11 12 10 8 8 9 9 10 9 8 9 9 9 9 9 8 8 8 9 8 7 6 7 6 7 5 8 6 6 7 10 7 6 6 5 5 6 6 6 6 7 6 6 6 6 7 6 6 6 5 6 6 5 5 5 5 5 5 5 4 6 5 5 5 4 4 4 4 4 4 4 4 4 5 6 7 8 7 8 9 9 10 10
8 11 13 14 11 10 8 8 8 9 8 8 9 9 9 9 9 8 8 7 7 7 7 5 5 5 5 6 6 7 9 6 5 5 5 5 6 6 6 6 6 6 7 7 6 6 7 7 7 6 6 5 6 6 5 6 5 5 5 3 4 4 4 4 4 4 4 4 4 4 4 4 4 4 4 5 5 6 7 8 7 7 8 9 9
9 9 10 14 9 10 9 9 8 9 9 9 8 8 8 9 9 9 8 7 7 7 7 7 7 6 5 6 7 8 8 7 5 5 5 5 5 6 6 6 7 7 7 7 7 7 7 7 6 6 6 5 5 6 5 5 5 3 4 3 4 4 5 4 5 4 4 4 5 5 4 4 4 4 4 4 4 5 6 7 7 7 7 7 8
8 9 9 11 10 8 8 8 8 9 9 9 8 8 8 10 9 9 7 7 8 8 7 7 6 5 6 8 11 12 8 7 7 7 7 7 7 7 7 7 7 7 7 8 8 8 7 6 6 6 5 5 5 5 5 5 4 3 3 3 4 4 5 5 4 4 4 4 5 5 4 4 4 3 4 4 5 5 5 5 6 7 7 7 7
7 8 8 7 9 7 7 8 8 9 8 8 7 7 7 7 6 6 8 9 9 7 6 6 5 5 6 11 11 12 7 5 5 6 6 6 6 7 7 7 7 7 8 8 8 7 6 6 6 6 4 4 4 5 5 5 4 4 3 4 4 4 4 5 4 4 3 4 4 4 4 4 4 4 4 6 4 4 4 5 5 6 6 7 6
8 8 8 6 7 8 7 8 8 8 8 8 8 8 9 9 9 8 8 7 7 7 7 6 4 4 5 9 9 10 6 6 6 6 6 6 6 6 6 7 7 7 8 8 7 6 6 4 4 4 4 6 6 4 4 4 4 3 4 4 4 4 5 5 5 4 3 3 4 4 4 4 4 4 4 4 4 4 4 4 5 5 6 6 6
9 9 9 9 7 6 7 8 9 9 9 11 10 9 9 8 7 7 7 7 7 6 6 5 5 6 5 7 7 7 6 6 6 7 7 7 6 5 7 7 7 7 6 6 6 6 5 4 4 4 6 6 6 6 6 5 3 4 4 4 4 5 5 5 5 4 4 4 4 4 4 4 4 4 4 4 4 4 4 4 4 5 6 6 6
9 9 9 8 7 8 8 8 8 8 8 8 7 8 7 7 6 6 6 6 6 6 6 6 6 6 6 6 7 7 7 6 6 6 6 6 7 7 7 6 6 7 6 4 6 5 6 4 4 4 4 6 6 6 6 6 6 4 4 4 5 6 6 5 5 4 3 4 4 4 4 4 4 4 4 4 4 3 4 4 4 6 5 5 6
9 8 8 8 8 8 8 8 8 8 8 8 9 8 8 8 6 6 7 7 7 7 6 6 6 6 6 6 6 7 6 6 6 7 7 6 6 7 6 5 5 6 4 3 3 5 4 4 4 4 5 5 6 6 6 6 6 7 7 7 7 6 8 6 4 3 4 4 4 4 5 4 4 4 5 4 4 4 4 4 4 4 4 5 5
10 9 9 8 8 7 7 7 7 8 8 8 8 8 8 7 5 5 6 8 7 7 6 6 6 6 6 6 6 6 6 6 6 6 7 7 6 6 6 5 4 4 3 5 3 3 4 4 5 5 5 5 4 7 7 7 6 6 6 6 7 7 7 4 3 4 4 4 4 4 4 4 4 4 3 3 3 4 5 5 5 5 5 4 5
8 8 7 8 8 7 7 7 8 8 7 6 7 7 6 6 6 6 6 7 7 6 6 6 6 6 5 5 5 5 5 6 5 6 5 6 6 6 6 5 4 4 3 3 3 4 4 4 4 4 5 5 5 6 8 7 7 7 7 7 7 8 5 3 4 5 3 2 3 3 4 5 5 4 4 4 4 4 5 6 5 4 4 4 4
9 9 9 9 8 8 7 8 8 8 8 7 7 6 5 5 5 5 5 6 7 7 7 6 6 5 5 5 4 4 4 5 5 5 6 6 6 6 6 6 5 4 3 4 4 4 4 4 4 4 5 5 5 5 8 8 8 7 7 7 6 4 3 4 5 6 5 4 4 4 4 5 5 5 5 5 5 5 6 6 5 6 6 5 5
9 9 9 10 9 9 8 9 8 7 7 7 7 6 5 5 4 6 6 6 6 7 6 6 6 6 6 5 5 5 5 5 6 6 6 6 5 5 5 5 5 3 3 4 4 4 4 4 4 5 5 5 5 6 5 5 7 7 7 6 4 4 3 3 6 7 6 4 4 4 4 4 4 4 5 5 5 5 6 6 5 5 6 6 6
9 9 8 8 8 8 8 7 6 6 7 8 8 7 7 7 7 6 7 7 7 6 7 6 5 5 5 5 5 5 5 6 5 5 6 5 5 5 5 5 4 5 6 6 4 4 5 4 4 4 4 4 5 5 5 7 4 5 6 7 8 7 5 6 5 8 10 8 4 5 5 6 5 6 5 5 5 5 5 6 5 5 6 6 6
Wind_Direction
151 140 142 143 139 141 138 135 138 140 140 140 134 131 132 133 137 132 131 132 137 136 133 134 134 133 132 134 135 136 136 134 131 127 122 124 125 126 127 120 114 108 104 99 93 90 87 86 84 77 73 64 55 49 38 27 19 11 6 359 354 349 326 314 314 313 313 320 314 315 317 316 313 316 317 316 313 313 306 306 307 306 304 303 301
143 144 144 145 143 140 141 138 140 143 142 141 133 136 139 140 136 135 132 134 143 138 136 131 136 136 134 138 140 140 140 136 136 129 127 130 133 138 133 125 118 113 107 99 95 90 87 86 84 79 67 59 47 41 27 19 9 5 4 357 352 346 341 325 323 318 318 321 317 313 312 321 312 318 320 318 317 315 312 310 306 304 306 304 302
148 146 146 146 144 143 143 146 148 147 143 142 140 140 138 138 140 135 135 136 135 139 136 138 139 140 139 142 143 143 143 141 138 133 133 138 142 142 137 131 126 121 112 102 96 92 89 85 82 72 58 50 40 32 20 9 1 1 353 347 342 341 340 334 326 324 320 316 314 316 321 321 316 319 322 318 314 314 313 312 310 309 305 303 302
146 145 145 145 144 147 151 150 149 148 146 144 142 140 140 139 137 134 136 141 140 132 138 140 142 145 144 147 148 146 146 144 143 140 140 142 145 144 141 136 130 121 114 106 95 88 86 85 77 64 49 44 30 23 17 3 359 353 347 348 342 342 334 329 327 318 316 312 318 318 321 320 319 317 318 319 319 317 313 311 310 308 306 306 306
145 143 144 143 150 152 151 150 149 149 143 140 139 138 137 136 137 137 137 139 139 138 138 143 148 150 150 153 151 151 151 150 149 147 147 148 145 146 145 138 133 126 121 112 97 88 85 81 75 62 47 34 25 18 10 0 354 350 350 349 345 340 331 329 323 318 312 310 311 314 314 315 316 315 323 325 323 317 316 314 314 311 311 314 311
146 141 146 149 154 152 149 151 151 145 139 138 140 140 138 138 138 138 145 141 140 144 146 152 156 155 153 153 153 151 153 155 155 154 153 155 154 151 146 142 137 137 138 125 106 92 84 78 72 60 46 29 16 9 4 358 353 351 353 347 344 336 332 328 323 317 310 307 313 316 324 325 322 322 326 327 324 321 321 320 316 316 320 322 318
144 146 150 152 154 155 154 153 146 142 140 139 138 139 139 139 142 143 144 145 148 149 153 152 153 152 148 146 148 151 155 160 160 159 161 163 162 158 155 149 147 145 147 136 121 102 85 76 69 58 42 27 11 8 3 358 354 351 353 346 341 338 334 331 325 320 317 316 315 315 319 323 323 324 330 328 321 322 323 324 320 326 325 322 319
149 151 151 152 154 154 151 143 139 136 135 136 136 137 137 140 139 138 143 148 154 158 158 153 148 147 143 144 141 148 155 163 165 167 167 168 167 165 163 161 159 156 153 152 143 122 98 78 66 54 39 25 12 11 10 356 351 349 355 346 343 339 335 331 328 325 324 323 321 326 326 323 328 327 325 328 329 329 332 323 322 326 326 323 317
149 151 152 152 151 145 137 135 134 133 135 133 136 139 139 137 136 139 146 147 149 155 154 151 148 144 140 141 147 152 163 167 171 173 173 173 172 171 172 169 169 163 161 160 167 162 137 90 57 42 35 16 10 14 14 8 351 349 350 345 342 340 334 332 329 329 327 324 325 328 325 329 332 332 334 335 335 330 324 324 320 321 323 319 320
148 151 153 147 139 140 138 135 137 137 136 137 135 127 120 123 130 138 144 148 149 149 152 153 150 148 145 145 148 157 166 167 166 179 185 177 179 178 180 179 181 173 171 170 175 182 161 127 72 47 15 335 331 15 356 357 0 355 341 341 341 338 335 332 331 333 329 327 330 329 330 333 333 334 328 328 327 324 323 324 325 325 321 318 317
148 152 152 144 142 140 137 138 139 142 141 138 137 136 140 133 134 142 143 148 149 151 156 154 150 149 150 150 154 160 161 160 156 180 193 206 187 186 186 184 188 190 189 187 177 182 187 171 41 359 337 346 1 6 338 359 351 347 339 329 324 329 334 331 330 331 330 327 324 327 329 327 331 328 326 329 328 328 323 321 319 319 328 330 326
152 154 147 142 145 146 144 143 144 144 146 147 147 136 126 132 138 143 150 152 152 152 155 151 145 146 146 153 155 157 157 129 163 173 180 191 211 189 184 182 187 194 196 200 189 180 172 153 357 330 2 11 339 347 345 349 347 344 335 329 320 311 293 309 323 328 330 325 322 326 325 330 325 326 330 331 329 324 322 322 319 325 327 327 327
156 147 145 148 148 146 146 149 148 149 152 152 141 136 139 139 129 147 171 165 147 152 149 141 146 148 153 157 155 149 141 137 163 162 170 172 179 197 173 174 183 181 191 202 180 166 143 112 336 335 30 11 340 353 342 342 344 330 307 300 301 319 323 308 274 291 317 313 318 316 324 324 322 325 325 322 320 317 322 321 321 325 325 323 321
163 150 150 152 150 146 148 148 150 154 150 131 127 138 142 149 157 169 167 157 150 144 145 145 145 154 157 154 144 134 131 136 155 157 153 149 164 203 159 165 171 168 174 163 153 148 149 134 336 347 360 357 9 353 342 340 342 342 342 340 337 332 325 320 321 312 310 314 313 311 311 317 312 314 315 318 320 322 322 319 318 323 325 322 318
159 153 142 143 147 149 149 148 148 148 143 141 144 146 147 154 165 170 166 163 159 158 157 154 150 150 149 143 139 130 111 126 154 148 136 135 133 182 144 148 163 139 123 129 134 134 140 138 316 327 341 358 31 0 337 339 337 335 332 336 334 330 325 336 341 333 326 315 312 305 305 307 309 309 311 312 314 310 311 309 309 318 320 319 314
162 159 152 146 150 154 153 152 148 145 143 148 153 153 159 165 166 162 159 158 153 143 142 148 151 149 146 140 137 131 119 122 145 141 136 139 159 171 167 172 166 150 135 132 133 132 146 218 292 320 346 343 59 6 347 327 327 330 332 332 330 327 326 334 299 297 301 309 310 308 306 300 297 299 300 304 308 310 311 306 309 321 328 325 322
159 159 159 158 156 153 152 151 149 149 152 152 152 154 159 166 159 155 153 159 158 160 156 156 152 147 148 148 141 137 143 155 157 152 147 156 176 180 171 173 160 154 144 142 141 139 168 201 280 338 328 7 44 347 355 328 325 330 333 330 328 326 338 339 326 308 302 300 294 288 287 285 289 293 296 299 301 309 315 322 330 333 334 329 328
160 161 160 155 153 153 151 150 148 151 152 158 156 152 155 154 156 159 163 165 167 164 157 153 156 157 156 156 151 147 153 157 169 160 157 179 211 171 176 167 158 153 148 153 153 154 130 281 306 313 339 350 12 329 0 325 325 329 330 332 328 336 342 341 333 330 317 303 294 294 290 289 290 287 292 303 312 319 331 331 326 335 332 329 324
163 167 164 163 162 160 152 143 147 151 157 160 157 156 162 164 162 161 162 163 161 156 157 158 159 163 164 159 159 151 141 135 153 150 152 154 179 173 175 163 163 162 161 157 165 165 165 182 214 318 340 337 315 327 359 324 313 319 326 322 329 334 341 334 329 325 326 322 317 315 305 297 299 311 312 305 308 319 330 325 324 339 334 328 325
170 167 155 157 156 156 159 160 161 161 162 163 162 156 151 151 158 159 157 164 160 160 161 160 160 163 159 146 143 145 145 147 157 163 150 153 193 190 171 169 166 163 174 168 168 166 155 165 174 178 245 281 314 334 337 342 296 310 317 323 331 331 333 323 316 318 311 310 309 306 307 311 314 318 325 327 327 331 329 327 328 329 335 325 323
156 154 157 157 156 159 162 164 159 163 163 159 157 149 152 155 155 155 156 156 152 152 155 157 155 149 152 155 162 165 157 150 150 158 148 155 171 215 172 172 158 158 153 158 156 143 126 33 1 98 2 332 328 332 323 319 297 290 295 317 321 314 306 307 308 306 312 313 315 319 327 331 334 335 335 334 333 332 329 326 329 331 330 326 323
153 154 157 159 156 154 158 159 159 156 151 144 150 153 157 154 152 148 147 150 153 154 154 157 155 154 160 165 167 169 156 161 153 160 155 164 180 238 205 163 165 155 158 145 152 127 30 358 336 10 335 321 323 317 314 306 306 284 292 309 301 302 302 294 305 318 324 328 332 335 339 341 342 342 337 336 335 332 329 329 330 331 332 325 321
154 151 151 153 160 156 150 155 158 156 152 156 153 154 156 156 154 152 152 158 160 156 157 158 158 158 162 172 174 173 163 167 166 158 163 167 176 196 249 240 176 278 196 151 107 46 358 312 303 347 315 314 310 311 302 304 284 268 304 307 300 304 291 308 316 321 329 335 339 343 343 344 342 341 340 336 332 331 327 328 326 328 325 316 315
148 148 156 162 161 163 155 157 155 152 157 161 160 154 158 160 157 156 163 167 166 160 162 167 168 167 169 169 174 177 179 176 163 176 168 180 174 190 190 213 194 254 271 238 196 345 318 328 335 328 308 306 302 300 300 286 274 289 295 294 302 290 299 316 328 331 330 341 345 346 343 342 338 336 337 329 324 320 322 322 324 325 330 326 325
155 156 156 160 159 157 156 158 156 160 162 159 159 161 161 162 160 166 168 173 170 167 167 173 177 175 177 175 176 178 182 182 175 173 189 180 189 188 189 188 204 211 244 220 251 301 345 310 292 287 296 299 292 286 268 253 240 257 276 293 283 310 325 326 327 331 338 343 345 340 339 338 331 324 317 313 308 314 328 326 323 324 329 328 313
159 163 161 155 158 159 156 158 160 162 161 166 166 164 161 166 167 169 178 178 175 172 170 175 183 184 184 185 182 183 182 188 189 182 185 194 197 194 197 191 203 211 250 287 309 297 281 280 276 270 264 261 280 285 300 308 313 294 276 261 304 327 327 331 330 333 337 338 339 337 336 331 327 321 315 318 326 336 336 332 330 338 340 339 336
156 158 161 159 154 160 160 157 153 156 162 165 168 167 169 172 172 174 182 182 176 172 170 182 189 191 188 186 187 180 186 195 200 196 196 197 202 184 188 202 198 205 226 227 214 233 235 246 286 304 283 284 266 263 262 273 265 261 300 322 328 322 328 328 330 317 321 331 329 333 332 330 325 330 337 334 337 339 338 331 334 336 340 344 340
158 161 161 153 156 159 160 158 156 159 168 170 172 174 175 177 178 181 183 180 177 181 183 186 190 189 191 191 184 182 194 205 205 207 200 202 202 199 201 210 213 222 226 227 239 255 280 249 230 230 234 248 252 278 297 303 299 297 315 325 325 323 303 270 254 293 327 329 327 331 336 338 339 339 336 338 339 337 338 338 338 336 340 345 346
158 155 153 154 159 160 155 161 165 163 169 177 180 177 174 179 185 186 187 183 186 183 184 184 189 193 197 192 186 193 205 209 215 203 203 189 192 195 202 209 212 216 211 81 288 263 251 261 282 289 296 313 309 316 321 324 329 324 309 316 333 332 337 347 343 339 334 330 333 332 335 338 338 342 339 340 340 336 340 339 336 339 340 350 352
155 147 151 151 153 158 159 164 167 168 171 175 172 174 184 185 187 180 182 188 186 185 178 194 192 191 195 200 202 202 205 215 138 169 198 196 199 203 207 191 184 212 127 150 236 276 272 279 285 291 300 303 313 312 314 320 321 326 327 323 315 332 335 333 338 338 329 319 323 330 334 333 338 341 342 341 337 334 338 338 339 343 347 354 354
152 152 161 164 166 162 161 166 171 172 173 171 171 167 167 173 2 236 198 172 177 183 192 195 177 194 195 203 208 238 296 71 144 179 186 196 196 197 192 180 174 156 148 161 205 242 262 271 279 286 284 288 292 301 305 303 308 311 319 321 315 321 324 331 339 331 321 319 322 327 330 336 337 338 337 338 333 330 342 342 342 347 350 353 354
156 162 170 163 165 167 167 167 168 170 169 168 167 166 167 171 172 90 125 176 182 182 186 191 189 192 206 222 221 209 218 224 195 179 191 192 195 190 184 177 171 159 165 195 246 253 252 262 272 281 291 291 289 293 293 295 299 302 307 308 315 317 319 327 333 319 315 318 323 323 330 331 333 332 330 331 328 336 342 339 344 347 346 350 349
163 162 160 156 164 169 168 168 168 168 165 166 170 171 173 174 170 172 96 97 185 200 201 195 195 199 200 212 222 235 225 201 204 199 193 195 190 189 180 174 161 152 139 174 237 254 253 257 266 275 278 278 287 292 298 295 292 296 295 298 301 306 311 319 301 296 304 313 310 318 327 327 329 329 332 335 337 338 338 341 344 345 346 347 347
161 159 160 161 165 171 174 171 172 171 171 174 175 176 179 176 176 166 162 161 140 173 203 203 205 205 212 211 214 226 230 206 193 199 195 191 188 177 165 159 154 173 208 238 227 248 254 258 266 271 275 278 279 278 279 286 291 287 291 288 290 297 296 295 295 310 315 316 319 323 324 329 331 333 335 335 339 341 344 345 345 346 346 347 346
167 169 162 161 167 169 171 170 168 167 169 171 171 175 177 177 172 168 174 175 181 186 191 191 200 203 208 210 220 222 221 209 196 195 191 183 169 158 150 146 165 191 208 223 235 243 254 253 262 267 267 272 275 277 278 285 287 284 284 290 295 297 300 300 304 308 309 314 315 321 326 319 327 332 330 330 336 341 346 346 346 346 345 344 342
159 155 161 168 165 161 165 169 172 176 176 175 177 178 176 172 172 177 175 176 179 187 191 197 187 184 206 238 225 217 214 204 198 191 186 172 159 157 172 198 204 213 217 215 224 234 243 256 260 263 266 266 269 267 268 273 276 280 281 286 284 289 293 295 296 301 306 303 303 306 311 318 326 328 329 331 338 340 343 346 341 340 339 345 336
163 157 161 170 173 169 167 166 172 173 171 172 172 175 175 176 178 176 178 180 182 189 193 168 132 137 155 195 172 174 177 183 182 178 176 173 171 180 215 206 216 217 224 233 231 233 238 246 242 251 256 259 262 265 268 267 272 273 274 270 273 277 279 286 294 296 293 296 299 302 300 308 313 319 324 327 333 340 343 343 339 339 339 337 335
166 167 171 171 164 158 160 173 172 166 171 172 177 182 175 179 179 179 180 183 185 187 188 171 179 175 179 178 156 155 122 107 110 114 135 147 173 208 214 223 222 228 234 241 238 237 243 251 249 248 252 252 259 262 261 266 267 268 273 276 275 274 270 279 266 254 249 267 276 285 295 305 311 315 322 323 326 333 336 338 337 341 339 343 353
166 164 160 158 163 162 159 154 153 166 173 176 180 177 172 175 177 185 187 185 183 190 189 174 180 187 176 138 147 134 134 161 182 188 180 188 193 201 211 214 220 229 240 246 250 243 251 255 254 251 252 253 254 255 255 261 263 263 268 274 277 282 272 273 275 272 271 281 286 291 295 302 310 314 314 314 323 331 329 328 332 339 342 346 349
165 160 163 161 161 166 166 162 157 167 167 176 181 179 173 175 180 183 183 179 183 190 195 190 190 190 164 147 147 158 184 186 195 200 194 190 196 203 207 216 220 229 233 241 245 249 249 255 258 255 251 251 246 250 249 250 256 259 264 262 273 277 275 279 284 284 285 289 292 291 290 289 297 303 303 306 322 326 321 325 331 333 335 336 336
162 155 156 172 165 158 159 158 170 178 172 182 173 175 175 180 183 181 176 175 178 185 196 197 196 189 180 178 167 177 192 198 200 206 204 202 203 205 209 218 223 230 234 241 247 251 252 254 256 252 252 251 246 243 244 244 248 253 257 259 263 267 274 275 271 272 271 274 274 281 283 283 285 292 301 313 311 304 312 320 329 336 337 340 338
142 141 157 160 159 161 152 169 169 172 174 178 176 183 178 181 180 176 185 189 190 185 180 188 190 192 166 162 170 186 204 215 207 208 211 208 211 215 216 221 222 229 237 241 244 245 247 248 250 251 250 248 244 243 241 245 243 248 252 257 262 267 273 277 276 271 268 276 273 267 273 277 282 283 280 281 293 304 310 320 327 327 335 335 342
134 149 162 158 166 169 166 171 165 163 170 175 181 185 185 185 188 185 186 188 185 188 193 190 185 185 171 172 172 176 212 219 219 218 221 219 217 219 218 224 227 230 233 241 244 246 246 245 246 245 243 245 246 244 241 246 247 248 253 253 258 262 267 274 276 269 260 262 265 259 255 265 262 259 270 275 286 292 301 306 313 325 331 332 339
148 155 163 169 171 162 171 173 178 178 176 181 179 179 183 185 183 180 181 181 186 186 193 186 182 183 179 156 165 181 209 215 217 220 220 222 223 223 227 229 231 230 232 234 238 233 233 236 240 246 245 248 246 243 244 246 243 245 251 257 260 260 264 265 265 269 272 279 283 282 270 260 257 266 265 262 266 284 292 300 308 317 326 330 335
153 159 164 168 172 173 179 182 180 175 174 172 181 183 179 181 179 183 181 185 184 187 193 192 188 182 178 170 178 191 203 210 215 219 224 224 226 230 232 232 228 228 231 232 229 219 221 229 234 241 245 250 246 243 243 243 237 237 239 240 252 259 257 254 261 273 271 264 274 276 276 272 268 266 266 263 262 264 277 289 299 313 309 320 328
162 162 164 171 169 173 173 176 175 172 174 181 181 182 182 185 177 174 179 190 188 191 196 195 200 197 193 184 185 193 202 209 216 221 224 226 226 230 231 230 231 229 229 231 223 215 222 225 228 235 237 243 244 247 247 244 238 235 235 233 236 243 253 260 264 258 250 244 253 267 273 271 264 268 261 274 277 273 275 277 281 282 298 303 311
166 167 167 171 176 171 168 157 163 174 177 178 184 184 183 180 172 177 187 193 188 190 197 198 196 201 201 197 192 197 201 205 218 219 222 226 228 232 233 234 232 235 237 232 225 225 221 222 230 232 238 246 253 252 254 251 248 241 232 233 235 241 248 252 249 246 249 243 241 258 267 277 280 279 260 238 254 258 257 263 268 272 275 288 297
161 166 171 172 166 162 158 161 172 170 178 172 179 179 180 180 178 182 186 189 196 198 202 205 207 210 206 207 201 204 205 213 217 223 227 227 227 227 227 227 226 232 235 235 231 226 226 228 225 228 236 240 241 251 256 258 256 253 248 242 240 239 243 256 272 280 285 282 267 254 253 259 267 272 281 274 265 272 270 271 265 266 266 271 279
169 175 166 178 179 170 156 165 168 173 177 171 174 178 171 173 187 186 190 194 195 199 202 207 210 214 216 218 209 208 205 211 221 224 224 228 227 225 221 222 223 229 234 240 239 229 225 230 230 232 234 239 240 243 249 252 256 256 254 251 257 277 291 262 263 267 278 276 256 249 247 248 252 255 259 256 255 252 254 257 261 266 271 268 270
175 177 177 182 172 178 175 171 168 172 164 170 173 173 169 175 174 187 198 204 208 206 211 209 214 214 214 213 213 217 213 214 219 223 226 227 224 224 224 223 226 228 231 236 243 241 237 234 227 226 229 236 239 242 246 250 255 259 265 272 327 330 307 253 233 247 252 249 245 244 244 246 246 250 252 247 244 239 244 249 250 254 258 263 263
178 178 177 167 167 175 173 172 168 173 173 175 174 180 180 185 192 196 198 199 204 207 207 204 205 211 217 219 217 219 220 225 225 230 231 232 231 229 227 230 231 231 236 239 244 244 241 234 234 229 229 231 238 243 247 251 254 255 269 294 294 281 252 237 246 222 215 232 242 238 232 230 229 233 237 239 235 237 236 243 246 245 256 258 260